User: anonymous   Login
Location: Unspecified
(0.0000°N, 0.0000°E)
Time: 02:27:07
(UTC+00:00)
Language:

OPTUS D2 - Orbit

View from above orbital plane
View from above orbital plane
View from above satellite
View from above satellite

Ground track
Ground track

The orbit data is extracted from the following two-line orbital elements,

1 32252U 07044A   16041.49096203 -.00000197  00000-0  00000+0 0  9991
2 32252   0.0461 297.6924 0003116  36.7729 134.2622  1.00271004 30548
Epoch (UTC): 10 February 2016 11:46:59
Eccentricity: 0.0003116
inclination: 0.0461°
perigee height: 35773 km
apogee height: 35799 km
right ascension of ascending node: 297.6924°
argument of perigee: 36.7729°
revolutions per day: 1.00271004
mean anomaly at epoch: 134.2622°
orbit number at epoch: 3054

The dashed part of the orbit path shows where the satellite is in the earth's shadow,  

DLR